QPF
0.01 0.03 0.04 0.04 0.07 0.07 0.05 0.03 0.03 0.03 0.03 0.02 0.03 0.03 0.04 0.04 0.03 0.02 0.04 0.04 0.04 0.04 0.05 0.09 0.10 0.09 0.08 0.06 0.06 0.07 0.06 0.05 0.05 0.05 0.04 0.03 0.03 0.02 0.02 0.01 0.01 0.01 0.01
0.02 0.03 0.04 0.07 0.08 0.08 0.06 0.03 0.03 0.03 0.03 0.03 0.03 0.03 0.04 0.04 0.04 0.03 0.06 0.05 0.04 0.03 0.04 0.07 0.08 0.07 0.07 0.05 0.06 0.06 0.04 0.03 0.05 0.06 0.07 0.04 0.03 0.02 0.01 0.01 0.01 0.01 0.02
0.02 0.02 0.05 0.10 0.06 0.07 0.04 0.02 0.03 0.03 0.04 0.06 0.05 0.05 0.05 0.05 0.05 0.05 0.07 0.08 0.06 0.05 0.05 0.05 0.07 0.09 0.10 0.07 0.07 0.08 0.05 0.04 0.06 0.06 0.06 0.05 0.04 0.02 0.01 0.01 0.01 0.01 0.02
0.01 0.02 0.05 0.08 0.06 0.03 0.02 0.02 0.02 0.03 0.05 0.09 0.09 0.07 0.06 0.05 0.05 0.06 0.08 0.10 0.10 0.08 0.07 0.08 0.10 0.10 0.10 0.09 0.08 0.09 0.07 0.07 0.07 0.06 0.05 0.04 0.03 0.03 0.02 0.01 0.01 0.01 0.01
0.01 0.01 0.03 0.05 0.05 0.02 0.02 0.02 0.02 0.03 0.04 0.05 0.06 0.05 0.04 0.04 0.04 0.04 0.07 0.09 0.11 0.11 0.11 0.11 0.10 0.08 0.08 0.09 0.09 0.12 0.11 0.14 0.06 0.04 0.03 0.02 0.02 0.02 0.02 0.02 0.01 0.01 0.02
0.01 0.01 0.02 0.03 0.02 0.01 0.01 0.01 0.01 0.01 0.02 0.02 0.02 0.03 0.03 0.03 0.03 0.03 0.03 0.05 0.08 0.10 0.11 0.11 0.08 0.06 0.05 0.05 0.08 0.11 0.12 0.11 0.04 0.04 0.03 0.03 0.04 0.04 0.04 0.03 0.02 0.01 0.01
0.01 0.01 0.01 0.02 0.01 0.01 0.01 0.01 0.01 0.01 0.02 0.02 0.02 0.02 0.02 0.02 0.02 0.03 0.03 0.04 0.05 0.05 0.06 0.07 0.06 0.05 0.05 0.06 0.07 0.08 0.08 0.05 0.04 0.04 0.03 0.03 0.03 0.04 0.04 0.03 0.03 0.03 0.03
0.01 0.01 0.01 0.01 0.01 0.01 0.01 0.01 0.01 0.01 0.01 0.03 0.03 0.02 0.02 0.02 0.03 0.02 0.01 0.02 0.02 0.03 0.04 0.03 0.03 0.03 0.03 0.04 0.05 0.06 0.05 0.04 0.04 0.05 0.05 0.05 0.05 0.05 0.05 0.05 0.06 0.05 0.03
0.01 0.01 0.01 0.01 0.01 0.01 0.01 0.01 0.01 0.02 0.02 0.03 0.04 0.02 0.01 0.02 0.03 0.02 0.01 0.01 0.02 0.02 0.02 0.01 0.01 0.01 0.01 0.02 0.03 0.05 0.04 0.03 0.03 0.04 0.05 0.04 0.03 0.03 0.03 0.03 0.03 0.03 0.03
0.01 0.01 0.01 0.00 0.00 0.01 0.02 0.01 0.02 0.03 0.03 0.04 0.04 0.03 0.02 0.03 0.03 0.02 0.01 0.02 0.02 0.02 0.01 0.01 0.00 0.00 0.00 0.00 0.01 0.02 0.02 0.03 0.03 0.02 0.02 0.02 0.03 0.02 0.02 0.02 0.02 0.03 0.03
0.01 0.00 0.01 0.01 0.01 0.01 0.01 0.02 0.02 0.03 0.04 0.04 0.04 0.03 0.04 0.04 0.03 0.02 0.02 0.02 0.02 0.01 0.01 0.01 0.01 0.00 0.00 0.00 0.01 0.01 0.01 0.02 0.02 0.02 0.02 0.03 0.04 0.03 0.03 0.02 0.02 0.02 0.03
0.01 0.00 0.01 0.01 0.01 0.01 0.01 0.02 0.02 0.03 0.05 0.04 0.04 0.04 0.05 0.04 0.04 0.03 0.03 0.03 0.01 0.01 0.01 0.01 0.00 0.00 0.01 0.01 0.02 0.02 0.02 0.02 0.02 0.02 0.03 0.03 0.03 0.02 0.03 0.02 0.02 0.03 0.04
0.01 0.01 0.01 0.01 0.01 0.01 0.01 0.02 0.02 0.02 0.04 0.04 0.05 0.08 0.07 0.05 0.03 0.03 0.04 0.03 0.02 0.02 0.02 0.01 0.01 0.01 0.02 0.02 0.02 0.02 0.02 0.02 0.02 0.02 0.02 0.02 0.02 0.01 0.03 0.03 0.03 0.04 0.04
0.02 0.01 0.01 0.01 0.01 0.01 0.02 0.03 0.03 0.02 0.02 0.04 0.05 0.05 0.04 0.03 0.03 0.03 0.04 0.04 0.04 0.03 0.02 0.02 0.02 0.03 0.02 0.02 0.02 0.01 0.02 0.03 0.02 0.01 0.01 0.01 0.01 0.02 0.03 0.03 0.03 0.03 0.02
0.01 0.01 0.02 0.02 0.02 0.02 0.04 0.05 0.05 0.04 0.03 0.03 0.03 0.05 0.05 0.04 0.04 0.06 0.07 0.05 0.04 0.03 0.04 0.04 0.04 0.03 0.03 0.03 0.03 0.02 0.02 0.02 0.01 0.01 0.01 0.01 0.01 0.01 0.02 0.02 0.02 0.02 0.02
0.01 0.01 0.01 0.01 0.01 0.02 0.02 0.02 0.03 0.03 0.03 0.03 0.04 0.05 0.04 0.04 0.05 0.07 0.08 0.08 0.08 0.06 0.05 0.05 0.05 0.05 0.04 0.04 0.03 0.02 0.01 0.01 0.01 0.00 0.01 0.01 0.01 0.01 0.03 0.03 0.03 0.03 0.02
0.00 0.00 0.01 0.01 0.01 0.02 0.02 0.02 0.02 0.02 0.02 0.03 0.05 0.05 0.05 0.05 0.06 0.07 0.11 0.13 0.09 0.05 0.04 0.05 0.04 0.04 0.03 0.02 0.01 0.01 0.01 0.00 0.00 0.00 0.00 0.01 0.02 0.02 0.02 0.03 0.03 0.04 0.06
0.01 0.00 0.01 0.01 0.01 0.02 0.04 0.05 0.04 0.03 0.05 0.07 0.09 0.09 0.10 0.08 0.09 0.11 0.11 0.06 0.03 0.03 0.03 0.04 0.03 0.03 0.03 0.03 0.02 0.02 0.01 0.01 0.01 0.01 0.02 0.01 0.02 0.02 0.01 0.01 0.01 0.02 0.03
0.01 0.01 0.01 0.01 0.02 0.03 0.05 0.06 0.07 0.08 0.09 0.13 0.15 0.15 0.11 0.08 0.07 0.06 0.04 0.03 0.03 0.02 0.03 0.03 0.03 0.02 0.02 0.02 0.02 0.03 0.02 0.01 0.01 0.02 0.02 0.02 0.01 0.01 0.01 0.01 0.01 0.01 0.01
0.01 0.01 0.02 0.01 0.02 0.03 0.07 0.09 0.14 0.19 0.18 0.15 0.14 0.13 0.09 0.06 0.04 0.04 0.04 0.03 0.03 0.03 0.02 0.01 0.01 0.00 0.01 0.02 0.04 0.04 0.02 0.02 0.03 0.03 0.03 0.03 0.03 0.03 0.01 0.00 0.00 0.01 0.01
0.02 0.03 0.03 0.03 0.03 0.04 0.07 0.10 0.11 0.11 0.09 0.09 0.09 0.09 0.09 0.07 0.05 0.05 0.04 0.04 0.04 0.02 0.01 0.01 0.01 0.00 0.01 0.02 0.02 0.02 0.01 0.02 0.03 0.06 0.07 0.08 0.07 0.06 0.05 0.02 0.01 0.01 0.01
0.03 0.04 0.05 0.06 0.06 0.04 0.05 0.06 0.07 0.07 0.06 0.06 0.06 0.06 0.06 0.06 0.06 0.05 0.05 0.06 0.05 0.03 0.02 0.01 0.01 0.00 0.00 0.00 0.01 0.01 0.01 0.01 0.01 0.03 0.07 0.09 0.08 0.06 0.05 0.03 0.02 0.01 0.01
0.05 0.05 0.05 0.05 0.06 0.06 0.06 0.06 0.07 0.07 0.07 0.05 0.04 0.05 0.06 0.05 0.05 0.05 0.06 0.06 0.05 0.04 0.03 0.01 0.01 0.01 0.01 0.01 0.01 0.01 0.01 0.01 0.00 0.01 0.03 0.06 0.06 0.03 0.01 0.01 0.01 0.00 0.00
0.05 0.04 0.03 0.03 0.04 0.07 0.09 0.08 0.08 0.07 0.05 0.05 0.04 0.03 0.04 0.03 0.03 0.04 0.05 0.07 0.06 0.05 0.04 0.03 0.02 0.01 0.01 0.01 0.01 0.01 0.01 0.01 0.01 0.00 0.00 0.01 0.01 0.01 0.00 0.00 0.00 0.00 0.00
0.05 0.04 0.03 0.04 0.05 0.05 0.04 0.04 0.05 0.03 0.02 0.02 0.02 0.02 0.02 0.03 0.04 0.05 0.07 0.08 0.08 0.07 0.07 0.05 0.03 0.02 0.01 0.01 0.01 0.01 0.00 0.01 0.00 0.00 0.00 0.00 0.00 0.00 0.00 0.00 0.00 0.00 0.00
0.06 0.06 0.05 0.04 0.02 0.02 0.01 0.01 0.01 0.01 0.01 0.01 0.01 0.01 0.02 0.03 0.04 0.05 0.06 0.08 0.07 0.08 0.08 0.06 0.04 0.02 0.02 0.02 0.01 0.01 0.01 0.01 0.01 0.00 0.00 0.00 0.00 0.00 0.00 0.00 0.00 0.00 0.00
MSLP
1007.14 1007.21 1007.29 1007.37 1007.46 1007.58 1007.77 1008.06 1008.46 1008.97 1009.56 1010.19 1010.81 1011.37 1011.83 1012.16 1012.38 1012.50 1012.57 1012.63 1012.73 1012.89 1013.13 1013.46 1013.89 1014.38 1014.91 1015.48 1016.07 1016.65 1017.22 1017.76 1018.26 1018.72 1019.13 1019.48 1019.77 1019.99 1020.16 1020.27 1020.35 1020.38 1020.38
1006.50 1006.59 1006.68 1006.76 1006.85 1006.95 1007.13 1007.40 1007.79 1008.32 1008.94 1009.61 1010.28 1010.88 1011.38 1011.74 1011.98 1012.11 1012.18 1012.24 1012.35 1012.52 1012.79 1013.15 1013.59 1014.09 1014.63 1015.18 1015.74 1016.30 1016.85 1017.39 1017.93 1018.45 1018.95 1019.42 1019.84 1020.20 1020.49 1020.71 1020.86 1020.94 1020.96
1005.58 1005.71 1005.85 1005.98 1006.10 1006.24 1006.43 1006.72 1007.14 1007.69 1008.34 1009.05 1009.76 1010.40 1010.93 1011.32 1011.57 1011.71 1011.79 1011.86 1011.98 1012.16 1012.44 1012.81 1013.25 1013.74 1014.26 1014.79 1015.31 1015.83 1016.36 1016.90 1017.46 1018.04 1018.62 1019.20 1019.74 1020.23 1020.64 1020.96 1021.19 1021.34 1021.39
1004.43 1004.60 1004.81 1005.01 1005.21 1005.41 1005.66 1006.00 1006.47 1007.06 1007.75 1008.50 1009.24 1009.92 1010.47 1010.89 1011.16 1011.31 1011.40 1011.49 1011.60 1011.80 1012.08 1012.44 1012.88 1013.35 1013.84 1014.33 1014.82 1015.31 1015.82 1016.35 1016.92 1017.54 1018.18 1018.84 1019.47 1020.06 1020.58 1021.00 1021.31 1021.51 1021.62
1003.13 1003.34 1003.61 1003.90 1004.19 1004.49 1004.82 1005.24 1005.76 1006.41 1007.14 1007.92 1008.70 1009.40 1009.99 1010.42 1010.71 1010.89 1011.00 1011.10 1011.22 1011.42 1011.70 1012.07 1012.49 1012.94 1013.40 1013.86 1014.32 1014.78 1015.26 1015.79 1016.36 1016.99 1017.67 1018.37 1019.07 1019.72 1020.31 1020.80 1021.18 1021.45 1021.62
1001.80 1002.03 1002.36 1002.72 1003.10 1003.49 1003.92 1004.42 1005.01 1005.71 1006.49 1007.31 1008.11 1008.84 1009.45 1009.92 1010.24 1010.45 1010.58 1010.70 1010.85 1011.06 1011.34 1011.70 1012.10 1012.54 1012.98 1013.42 1013.85 1014.29 1014.76 1015.26 1015.82 1016.45 1017.12 1017.83 1018.54 1019.22 1019.84 1020.38 1020.82 1021.15 1021.40
1000.59 1000.80 1001.15 1001.57 1002.01 1002.48 1002.98 1003.55 1004.21 1004.96 1005.78 1006.63 1007.47 1008.23 1008.88 1009.38 1009.74 1009.98 1010.16 1010.31 1010.49 1010.72 1011.01 1011.36 1011.76 1012.19 1012.62 1013.04 1013.45 1013.87 1014.32 1014.80 1015.34 1015.93 1016.58 1017.26 1017.94 1018.62 1019.24 1019.80 1020.28 1020.68 1020.99
999.60 999.77 1000.10 1000.53 1001.00 1001.51 1002.07 1002.69 1003.39 1004.18 1005.04 1005.92 1006.79 1007.59 1008.27 1008.82 1009.23 1009.53 1009.76 1009.96 1010.18 1010.43 1010.74 1011.09 1011.49 1011.90 1012.32 1012.74 1013.14 1013.54 1013.97 1014.43 1014.93 1015.48 1016.07 1016.69 1017.33 1017.96 1018.56 1019.12 1019.63 1020.09 1020.49
998.92 999.02 999.30 999.69 1000.15 1000.66 1001.23 1001.87 1002.61 1003.42 1004.31 1005.22 1006.11 1006.94 1007.67 1008.27 1008.75 1009.11 1009.41 1009.67 1009.93 1010.22 1010.54 1010.91 1011.30 1011.71 1012.12 1012.52 1012.91 1013.31 1013.71 1014.14 1014.60 1015.10 1015.63 1016.18 1016.75 1017.32 1017.89 1018.44 1018.97 1019.47 1019.95
998.57 998.58 998.78 999.10 999.51 999.99 1000.54 1001.18 1001.92 1002.75 1003.65 1004.58 1005.50 1006.37 1007.14 1007.79 1008.33 1008.77 1009.13 1009.45 1009.77 1010.09 1010.44 1010.82 1011.21 1011.61 1012.01 1012.39 1012.78 1013.15 1013.54 1013.94 1014.36 1014.80 1015.27 1015.75 1016.25 1016.76 1017.28 1017.81 1018.35 1018.89 1019.44
998.54 998.47 998.58 998.81 999.14 999.56 1000.07 1000.69 1001.41 1002.24 1003.14 1004.08 1005.02 1005.91 1006.72 1007.42 1008.02 1008.52 1008.95 1009.33 1009.70 1010.06 1010.43 1010.81 1011.20 1011.59 1011.97 1012.34 1012.71 1013.07 1013.44 1013.81 1014.20 1014.59 1015.00 1015.42 1015.86 1016.31 1016.78 1017.29 1017.82 1018.39 1018.98
998.77 998.62 998.63 998.77 999.02 999.37 999.83 1000.42 1001.13 1001.94 1002.84 1003.78 1004.73 1005.63 1006.46 1007.19 1007.82 1008.38 1008.86 1009.29 1009.70 1010.09 1010.49 1010.87 1011.26 1011.63 1011.99 1012.34 1012.69 1013.04 1013.38 1013.73 1014.09 1014.45 1014.82 1015.19 1015.57 1015.97 1016.40 1016.87 1017.39 1017.97 1018.58
999.17 998.97 998.90 998.95 999.12 999.41 999.83 1000.39 1001.09 1001.89 1002.78 1003.71 1004.64 1005.54 1006.36 1007.10 1007.75 1008.33 1008.84 1009.31 1009.76 1010.18 1010.58 1010.97 1011.35 1011.70 1012.05 1012.38 1012.70 1013.02 1013.35 1013.68 1014.02 1014.36 1014.69 1015.02 1015.36 1015.72 1016.10 1016.54 1017.03 1017.59 1018.20
999.66 999.42 999.28 999.27 999.38 999.63 1000.03 1000.58 1001.27 1002.08 1002.96 1003.87 1004.77 1005.63 1006.42 1007.14 1007.78 1008.36 1008.89 1009.38 1009.84 1010.28 1010.69 1011.09 1011.45 1011.79 1012.10 1012.41 1012.71 1013.01 1013.32 1013.64 1013.96 1014.28 1014.60 1014.91 1015.22 1015.54 1015.88 1016.27 1016.72 1017.24 1017.82
1000.15 999.88 999.70 999.64 999.72 999.96 1000.37 1000.93 1001.64 1002.45 1003.32 1004.21 1005.07 1005.88 1006.62 1007.29 1007.89 1008.45 1008.96 1009.45 1009.92 1010.37 1010.79 1011.18 1011.54 1011.86 1012.15 1012.43 1012.70 1012.98 1013.27 1013.58 1013.89 1014.21 1014.52 1014.81 1015.10 1015.39 1015.69 1016.03 1016.42 1016.88 1017.41
1000.58 1000.28 1000.07 999.99 1000.07 1000.33 1000.77 1001.37 1002.11 1002.94 1003.81 1004.67 1005.48 1006.23 1006.90 1007.50 1008.04 1008.55 1009.04 1009.52 1009.99 1010.44 1010.87 1011.26 1011.60 1011.91 1012.18 1012.43 1012.67 1012.93 1013.20 1013.49 1013.80 1014.12 1014.42 1014.71 1014.99 1015.25 1015.52 1015.81 1016.14 1016.53 1016.98
1000.90 1000.57 1000.34 1000.26 1000.36 1000.66 1001.16 1001.82 1002.61 1003.46 1004.33 1005.16 1005.93 1006.60 1007.19 1007.72 1008.19 1008.65 1009.10 1009.56 1010.02 1010.47 1010.90 1011.29 1011.63 1011.92 1012.17 1012.39 1012.61 1012.84 1013.10 1013.38 1013.68 1014.00 1014.31 1014.60 1014.87 1015.12 1015.35 1015.60 1015.87 1016.18 1016.56
1001.09 1000.73 1000.48 1000.42 1000.56 1000.92 1001.48 1002.21 1003.05 1003.94 1004.81 1005.62 1006.33 1006.94 1007.45 1007.90 1008.30 1008.70 1009.12 1009.55 1010.00 1010.45 1010.88 1011.27 1011.60 1011.88 1012.11 1012.31 1012.51 1012.72 1012.95 1013.23 1013.53 1013.85 1014.17 1014.47 1014.74 1014.98 1015.20 1015.41 1015.63 1015.88 1016.18
1001.16 1000.77 1000.53 1000.48 1000.67 1001.09 1001.73 1002.52 1003.41 1004.32 1005.19 1005.97 1006.63 1007.18 1007.62 1007.99 1008.34 1008.69 1009.07 1009.48 1009.92 1010.37 1010.79 1011.18 1011.51 1011.78 1011.99 1012.18 1012.35 1012.54 1012.76 1013.03 1013.33 1013.66 1013.99 1014.30 1014.59 1014.83 1015.04 1015.23 1015.41 1015.61 1015.85
1001.17 1000.76 1000.53 1000.51 1000.75 1001.23 1001.92 1002.76 1003.68 1004.60 1005.45 1006.19 1006.81 1007.29 1007.67 1007.98 1008.27 1008.58 1008.93 1009.32 1009.75 1010.19 1010.62 1011.00 1011.32 1011.58 1011.79 1011.96 1012.12 1012.30 1012.52 1012.78 1013.08 1013.42 1013.76 1014.09 1014.39 1014.65 1014.86 1015.04 1015.20 1015.37 1015.56
1001.19 1000.79 1000.57 1000.59 1000.87 1001.39 1002.11 1002.97 1003.89 1004.79 1005.61 1006.30 1006.85 1007.27 1007.59 1007.85 1008.10 1008.37 1008.69 1009.06 1009.48 1009.91 1010.33 1010.70 1011.02 1011.28 1011.48 1011.64 1011.80 1011.98 1012.19 1012.45 1012.76 1013.10 1013.46 1013.80 1014.12 1014.39 1014.61 1014.79 1014.95 1015.10 1015.26
1001.33 1000.95 1000.76 1000.82 1001.12 1001.66 1002.38 1003.22 1004.10 1004.94 1005.69 1006.31 1006.79 1007.14 1007.40 1007.61 1007.81 1008.05 1008.34 1008.69 1009.08 1009.50 1009.90 1010.27 1010.58 1010.83 1011.03 1011.20 1011.37 1011.55 1011.77 1012.04 1012.35 1012.70 1013.06 1013.42 1013.74 1014.02 1014.25 1014.44 1014.60 1014.74 1014.89
1001.65 1001.32 1001.18 1001.27 1001.58 1002.11 1002.79 1003.57 1004.37 1005.12 1005.77 1006.29 1006.68 1006.95 1007.14 1007.29 1007.44 1007.64 1007.89 1008.21 1008.57 1008.95 1009.34 1009.69 1009.99 1010.24 1010.45 1010.63 1010.81 1011.01 1011.24 1011.52 1011.84 1012.19 1012.56 1012.91 1013.23 1013.50 1013.74 1013.92 1014.09 1014.23 1014.39
1002.22 1001.96 1001.87 1001.99 1002.30 1002.78 1003.40 1004.07 1004.75 1005.37 1005.89 1006.29 1006.57 1006.74 1006.85 1006.94 1007.03 1007.18 1007.38 1007.65 1007.97 1008.31 1008.66 1008.98 1009.28 1009.53 1009.75 1009.95 1010.15 1010.37 1010.62 1010.91 1011.23 1011.58 1011.92 1012.26 1012.56 1012.82 1013.04 1013.22 1013.38 1013.54 1013.70
1003.05 1002.87 1002.84 1002.97 1003.26 1003.68 1004.19 1004.74 1005.26 1005.73 1006.10 1006.35 1006.51 1006.58 1006.60 1006.61 1006.64 1006.73 1006.87 1007.07 1007.33 1007.62 1007.92 1008.21 1008.48 1008.73 1008.96 1009.18 1009.41 1009.65 1009.92 1010.21 1010.53 1010.85 1011.17 1011.47 1011.74 1011.96 1012.16 1012.33 1012.48 1012.64 1012.82
1004.12 1004.02 1004.04 1004.17 1004.42 1004.75 1005.14 1005.53 1005.90 1006.19 1006.40 1006.51 1006.54 1006.51 1006.44 1006.37 1006.34 1006.35 1006.42 1006.55 1006.73 1006.95 1007.19 1007.43 1007.68 1007.91 1008.14 1008.38 1008.62 1008.88 1009.16 1009.45 1009.75 1010.04 1010.32 1010.57 1010.78 1010.96 1011.12 1011.26 1011.41 1011.57 1011.77
Thickness
5792 5792 5791 5789 5786 5783 5780 5778 5776 5775 5774 5771 5768 5765 5764 5764 5764 5763 5762 5761 5759 5758 5756 5754 5752 5750 5748 5746 5744 5741 5738 5735 5734 5730 5727 5727 5728 5728 5727 5726 5725 5724 5723
5790 5791 5791 5790 5788 5786 5783 5781 5778 5777 5775 5773 5771 5769 5767 5765 5764 5763 5762 5761 5759 5757 5756 5754 5752 5750 5747 5745 5743 5740 5736 5734 5733 5729 5724 5720 5721 5723 5725 5724 5723 5722 5722
5792 5791 5791 5790 5789 5787 5785 5784 5781 5779 5777 5775 5772 5769 5766 5764 5762 5761 5760 5760 5759 5758 5756 5754 5752 5749 5747 5744 5742 5740 5737 5732 5731 5731 5726 5719 5716 5717 5720 5721 5720 5720 5719
5797 5795 5793 5792 5791 5791 5789 5786 5783 5780 5778 5776 5772 5768 5764 5760 5761 5760 5760 5760 5758 5757 5756 5753 5751 5749 5747 5744 5742 5740 5737 5734 5730 5729 5728 5726 5723 5717 5714 5717 5717 5717 5716
5800 5798 5797 5797 5796 5795 5792 5788 5784 5781 5779 5776 5773 5769 5766 5763 5761 5760 5758 5757 5756 5756 5754 5753 5751 5748 5746 5744 5742 5740 5737 5734 5732 5729 5727 5724 5722 5720 5715 5711 5712 5713 5714
5803 5801 5801 5799 5797 5796 5793 5789 5785 5781 5779 5776 5774 5770 5767 5764 5760 5758 5756 5755 5754 5754 5753 5752 5750 5748 5746 5744 5742 5740 5737 5735 5733 5731 5728 5725 5722 5719 5715 5711 5709 5709 5710
5803 5801 5799 5798 5796 5795 5793 5790 5786 5782 5779 5776 5773 5771 5768 5765 5761 5758 5756 5754 5752 5752 5752 5751 5749 5747 5745 5743 5742 5739 5737 5735 5733 5730 5728 5727 5725 5722 5718 5713 5709 5707 5707
5804 5803 5802 5800 5798 5797 5794 5791 5786 5782 5780 5777 5774 5772 5769 5765 5762 5759 5757 5754 5753 5752 5751 5750 5748 5747 5745 5743 5741 5739 5737 5735 5733 5731 5728 5725 5723 5722 5719 5714 5709 5704 5703
5804 5803 5803 5802 5800 5797 5795 5792 5788 5783 5780 5778 5774 5771 5769 5765 5762 5760 5758 5755 5753 5752 5750 5748 5747 5745 5744 5742 5740 5738 5735 5733 5731 5728 5726 5723 5722 5720 5718 5715 5712 5706 5701
5804 5803 5803 5802 5801 5799 5797 5793 5789 5785 5782 5778 5775 5772 5768 5766 5763 5760 5757 5755 5753 5751 5749 5747 5745 5743 5741 5740 5738 5735 5734 5731 5729 5726 5724 5721 5719 5717 5715 5713 5710 5708 5704
5803 5804 5804 5803 5801 5799 5796 5792 5789 5784 5781 5778 5774 5771 5768 5765 5762 5759 5758 5755 5753 5750 5748 5745 5743 5741 5739 5737 5734 5732 5730 5728 5725 5723 5721 5718 5717 5714 5712 5710 5707 5705 5702
5802 5802 5803 5801 5798 5796 5793 5791 5788 5784 5781 5778 5774 5770 5767 5763 5760 5758 5756 5754 5751 5749 5746 5744 5741 5739 5736 5734 5732 5729 5727 5725 5722 5720 5717 5715 5714 5711 5709 5706 5704 5701 5699
5800 5799 5798 5796 5795 5794 5792 5789 5786 5784 5781 5777 5772 5768 5765 5762 5759 5757 5754 5752 5749 5746 5744 5742 5738 5736 5733 5731 5729 5726 5724 5721 5719 5717 5715 5712 5710 5707 5705 5702 5700 5698 5696
5795 5794 5792 5792 5793 5792 5790 5788 5785 5782 5779 5775 5771 5766 5763 5760 5757 5754 5752 5749 5747 5744 5741 5738 5735 5732 5730 5728 5725 5722 5719 5717 5715 5713 5712 5709 5707 5704 5701 5699 5696 5694 5691
5791 5790 5790 5789 5789 5788 5787 5785 5783 5780 5776 5772 5768 5764 5760 5757 5754 5750 5747 5745 5742 5741 5738 5735 5731 5729 5726 5724 5721 5718 5715 5713 5710 5709 5707 5705 5703 5701 5698 5696 5693 5690 5687
5788 5789 5788 5787 5786 5785 5783 5782 5779 5777 5774 5769 5765 5761 5757 5753 5749 5746 5743 5740 5737 5735 5733 5730 5727 5724 5722 5719 5716 5714 5710 5708 5705 5703 5702 5700 5698 5696 5694 5691 5689 5686 5683
5784 5785 5786 5786 5786 5785 5782 5779 5777 5774 5770 5765 5761 5758 5753 5749 5745 5743 5739 5736 5733 5731 5729 5726 5723 5720 5718 5715 5712 5709 5706 5703 5701 5698 5697 5696 5694 5691 5688 5685 5683 5681 5679
5782 5783 5784 5784 5784 5783 5780 5776 5773 5769 5766 5761 5757 5754 5751 5746 5741 5738 5736 5733 5730 5728 5725 5722 5719 5716 5714 5711 5708 5705 5702 5699 5696 5694 5692 5690 5688 5686 5683 5680 5677 5675 5673
5778 5779 5780 5781 5779 5778 5776 5772 5767 5764 5761 5757 5753 5750 5747 5743 5738 5735 5733 5730 5727 5724 5721 5718 5715 5711 5709 5706 5703 5700 5696 5693 5691 5689 5687 5685 5683 5681 5678 5675 5671 5669 5667
5772 5772 5773 5772 5771 5772 5771 5766 5762 5759 5756 5754 5751 5748 5744 5740 5737 5734 5730 5727 5723 5720 5717 5713 5710 5707 5704 5701 5698 5695 5691 5688 5686 5684 5682 5680 5677 5674 5671 5668 5665 5663 5661
5764 5765 5764 5762 5762 5763 5763 5758 5756 5753 5753 5751 5747 5744 5740 5737 5734 5729 5725 5722 5718 5714 5711 5707 5704 5702 5699 5696 5693 5690 5687 5684 5681 5679 5677 5674 5671 5668 5665 5662 5660 5657 5655
5754 5756 5755 5753 5753 5754 5754 5751 5749 5750 5748 5746 5742 5738 5736 5733 5729 5724 5719 5715 5711 5707 5704 5701 5699 5697 5694 5691 5688 5685 5682 5680 5677 5674 5672 5669 5665 5662 5659 5656 5654 5651 5648
5744 5745 5746 5745 5744 5745 5745 5743 5742 5742 5741 5738 5735 5732 5730 5726 5723 5718 5713 5708 5705 5703 5699 5696 5694 5691 5689 5686 5683 5680 5677 5675 5672 5669 5666 5663 5659 5656 5653 5651 5648 5645 5642
5733 5734 5736 5735 5735 5736 5736 5735 5735 5734 5732 5729 5726 5724 5721 5717 5714 5711 5707 5703 5700 5697 5693 5691 5688 5686 5683 5680 5677 5674 5671 5668 5665 5662 5659 5656 5652 5649 5646 5643 5641 5638 5636
5723 5724 5725 5725 5725 5726 5727 5727 5726 5725 5722 5720 5718 5716 5713 5709 5705 5703 5700 5698 5696 5694 5691 5688 5684 5680 5677 5676 5672 5669 5666 5663 5659 5654 5651 5648 5645 5642 5639 5637 5634 5631 5629
5713 5713 5714 5715 5715 5716 5716 5716 5717 5716 5714 5712 5710 5708 5705 5702 5698 5695 5691 5690 5689 5686 5684 5683 5679 5677 5674 5670 5666 5663 5659 5655 5651 5647 5644 5642 5639 5636 5633 5630 5627 5625 5622